datetime,pool elevation
1974-12-31,6142.0
1975-01-01,6142.0
1975-01-02,6142.0
1975-01-03,6142.0
1975-01-04,6142.0
1975-01-05,6142.0
1975-01-06,6142.0
1975-01-07,6142.0
1975-01-08,6141.8999
1975-01-09,6141.8999
1975-01-10,6141.8999
1975-01-11,6141.7998
1975-01-12,6141.7998
1975-01-13,6141.8999
1975-01-14,6141.8999
1975-01-15,6142.0
1975-01-16,6142.0
1975-01-17,6142.0
1975-01-18,6142.0
1975-01-19,6142.0
1975-01-20,6142.0
1975-01-21,6142.0
1975-01-22,6141.8999
1975-01-23,6141.8999
1975-01-24,6142.0
1975-01-25,6142.0
1975-01-26,6142.0
1975-01-27,6142.0
1975-01-28,6142.0
1975-01-29,6141.8999
1975-01-30,6141.8999
1975-01-31,6141.8999
1975-02-01,6141.8999
1975-02-02,6141.8999
1975-02-03,6141.8999
1975-02-04,6141.8999
1975-02-05,6142.0
1975-02-06,6142.0
1975-02-07,6142.0
1975-02-08,6142.0
1975-02-09,6142.0
1975-02-10,6142.0
1975-02-11,6142.0
1975-02-12,6142.0
1975-02-13,6142.0
1975-02-14,6142.0
1975-02-15,6142.0
1975-02-16,6142.0
1975-02-17,6142.0
1975-02-18,6141.8999
1975-02-19,6141.8999
1975-02-20,6142.0
1975-02-21,6142.1001
1975-02-22,6142.1001
1975-02-23,6142.1001
1975-02-24,6142.1001
1975-02-25,6142.1001
1975-02-26,6142.0
1975-02-27,6142.0
1975-02-28,6142.0
1975-03-01,6142.0
1975-03-02,6142.2998
1975-03-03,6142.7998
1975-03-04,6142.5
1975-03-05,6142.1001
1975-03-06,6142.0
1975-03-07,6142.0
1975-03-08,6141.8999
1975-03-09,6142.0
1975-03-10,6142.1001
1975-03-11,6141.7998
1975-03-12,6141.7998
1975-03-13,6141.7998
1975-03-14,6141.8999
1975-03-15,6142.0
1975-03-16,6142.0
1975-03-17,6142.1001
1975-03-18,6142.0
1975-03-19,6142.0
1975-03-20,6142.1001
1975-03-21,6142.1001
1975-03-22,6142.2998
1975-03-23,6141.8999
1975-03-24,6141.7998
1975-03-25,6141.7998
1975-03-26,6142.1001
1975-03-27,6142.0
1975-03-28,6142.0
1975-03-29,6142.0
1975-03-30,6142.0
1975-03-31,6142.0
1975-04-01,6142.0
1975-04-02,6142.0
1975-04-03,6142.0
1975-04-04,6142.0
1975-04-05,6142.2998
1975-04-06,6142.2002
1975-04-07,6142.2002
1975-04-08,6143.7002
1975-04-09,6144.2002
1975-04-10,6144.6001
1975-04-11,6145.1001
1975-04-12,6145.7002
1975-04-13,6146.2002
1975-04-14,6146.7998
1975-04-15,6147.1001
1975-04-16,6146.8999
1975-04-17,6144.6001
1975-04-18,6142.7002
1975-04-19,6142.0
1975-04-20,6142.0
1975-04-21,6142.1001
1975-04-22,6143.1001
1975-04-23,6143.0
1975-04-24,6142.6001
1975-04-25,6142.5
1975-04-26,6143.0
1975-04-27,6143.3999
1975-04-28,6142.5
1975-04-29,6141.7998
1975-04-30,6141.8999
1975-05-01,6142.1001
1975-05-02,6142.5
1975-05-03,6142.0
1975-05-04,6142.6001
1975-05-05,6143.3999
1975-05-06,6143.7998
1975-05-07,6143.3999
1975-05-08,6142.6001
1975-05-09,6142.3999
1975-05-10,6143.5
1975-05-11,6145.8999
1975-05-12,6149.7998
1975-05-13,6155.2002
1975-05-14,6159.8999
1975-05-15,6163.8999
1975-05-16,6167.6001
1975-05-17,6170.7998
1975-05-18,6173.8999
1975-05-19,6176.7002
1975-05-20,6179.2998
1975-05-21,6181.6001
1975-05-22,6184.1001
1975-05-23,6185.7998
1975-05-24,6186.7998
1975-05-25,6187.7998
1975-05-26,6188.8999
1975-05-27,6190.2002
1975-05-28,6191.5
1975-05-29,6192.5
1975-05-30,6193.0
1975-05-31,6193.2998
1975-06-01,6193.6001
1975-06-02,6193.8999
1975-06-03,6193.7002
1975-06-04,6192.7998
1975-06-05,6191.7998
1975-06-06,6190.7998
1975-06-07,6189.7002
1975-06-08,6188.7002
1975-06-09,6187.7002
1975-06-10,6186.5
1975-06-11,6185.3999
1975-06-12,6184.2998
1975-06-13,6183.5
1975-06-14,6183.0
1975-06-15,6182.5
1975-06-16,6182.1001
1975-06-17,6181.6001
1975-06-18,6181.2002
1975-06-19,6180.7002
1975-06-20,6180.2002
1975-06-21,6179.7002
1975-06-22,6179.2002
1975-06-23,6178.6001
1975-06-24,6177.5
1975-06-25,6176.2998
1975-06-26,6175.1001
1975-06-27,6174.0
1975-06-28,6172.8999
1975-06-29,6171.7998
1975-06-30,6170.6001
1975-07-01,6169.2998
1975-07-02,6167.8999
1975-07-03,6166.5
1975-07-04,6164.7998
1975-07-05,6163.2002
1975-07-06,6161.5
1975-07-07,6159.7002
1975-07-08,6157.8999
1975-07-09,6156.0
1975-07-10,6154.0
1975-07-11,6151.8999
1975-07-12,6149.8999
1975-07-13,6148.1001
1975-07-14,6146.0
1975-07-15,6144.2998
1975-07-16,6142.5
1975-07-17,6141.5
1975-07-18,6141.2998
1975-07-19,6141.2998
1975-07-20,6141.2002
1975-07-21,6141.2998
1975-07-22,6141.5
1975-07-23,6140.3999
1975-07-24,6138.7998
1975-07-25,6138.1001
1975-07-26,6138.2998
1975-07-27,6138.1001
1975-07-28,6138.2002
1975-07-29,6138.2002
1975-07-30,6138.1001
1975-07-31,6138.1001
1975-08-01,6138.2002
1975-08-02,6138.2002
1975-08-03,6138.1001
1975-08-04,6138.2002
1975-08-05,6138.2002
1975-08-06,6138.2998
1975-08-07,6138.1001
1975-08-08,6138.3999
1975-08-09,6138.2998
1975-08-10,6138.2002
1975-08-11,6138.2998
1975-08-12,6138.2998
1975-08-13,6138.3999
1975-08-14,6138.0
1975-08-15,6138.0
1975-08-16,6138.2998
1975-08-17,6138.2002
1975-08-18,6138.1001
1975-08-19,6138.2002
1975-08-20,6138.1001
1975-08-21,6138.0
1975-08-22,6138.2002
1975-08-23,6138.1001
1975-08-24,6138.0
1975-08-25,6138.0
1975-08-26,6138.2998
1975-08-27,6138.2002
1975-08-28,6138.1001
1975-08-29,6138.0
1975-08-30,6138.1001
1975-08-31,6138.1001
1975-09-01,6138.1001
1975-09-02,6138.0
1975-09-03,6138.0
1975-09-04,6138.5
1975-09-05,6138.0
1975-09-06,6138.0
1975-09-07,6137.7998
1975-09-08,6137.7998
1975-09-09,6137.7998
1975-09-10,6137.7002
1975-09-11,6137.6001
1975-09-12,6137.6001
1975-09-13,6137.5
1975-09-14,6137.3999
1975-09-15,6137.3999
1975-09-16,6137.3999
1975-09-17,6137.3999
1975-09-18,6137.3999
1975-09-19,6137.3999
1975-09-20,6137.3999
1975-09-21,6137.3999
1975-09-22,6137.3999
1975-09-23,6137.3999
1975-09-24,6137.3999
1975-09-25,6137.3999
1975-09-26,6137.3999
1975-09-27,6137.3999
1975-09-28,6137.3999
1975-09-29,6137.2002
1975-09-30,6137.2002
1975-10-01,6135.8999
1975-10-02,6132.7002
1975-10-03,6129.2002
1975-10-04,6125.8999
1975-10-05,6122.2998
1975-10-06,6118.2998
1975-10-07,6116.8999
1975-10-08,6116.8999
1975-10-09,6116.6001
1975-10-10,6116.6001
1975-10-11,6116.7002
1975-10-12,6116.6001
1975-10-13,6116.5
1975-10-14,6116.5
1975-10-15,6116.6001
1975-10-16,6116.6001
1975-10-17,6116.6001
1975-10-18,6116.6001
1975-10-19,6116.6001
1975-10-20,6116.6001
1975-10-21,6116.6001
1975-10-22,6116.7002
1975-10-23,6116.8999
1975-10-24,6116.7998
1975-10-25,6116.6001
1975-10-26,6116.7002
1975-10-27,6116.6001
1975-10-28,6116.5
1975-10-29,6116.5
1975-10-30,6116.6001
1975-10-31,6116.7002
1975-11-01,6116.6001
1975-11-02,6116.6001
1975-11-03,6116.6001
1975-11-04,6117.1001
1975-11-05,6116.5
1975-11-06,6116.6001
1975-11-07,6116.5
1975-11-08,6116.5
1975-11-09,6116.6001
1975-11-10,6116.6001
1975-11-11,6116.5
1975-11-12,6116.5
1975-11-13,6116.7002
1975-11-14,6116.6001
1975-11-15,6116.6001
1975-11-16,6116.7002
1975-11-17,6116.7002
1975-11-18,6116.7002
1975-11-19,6116.7002
1975-11-20,6116.6001
1975-11-21,6116.7002
1975-11-22,6116.6001
1975-11-23,6116.5
1975-11-24,6116.6001
1975-11-25,6116.6001
1975-11-26,6116.7998
1975-11-27,6116.7002
1975-11-28,6116.8999
1975-11-29,6117.1001
1975-11-30,6116.7002
1975-12-01,6116.7998
1975-12-02,6116.7002
1975-12-03,6116.6001
1975-12-04,6116.6001
1975-12-05,6116.5
1975-12-06,6116.5
1975-12-07,6116.5
1975-12-08,6116.5
1975-12-09,6116.5
1975-12-10,6116.5
1975-12-11,6116.6001
1975-12-12,6116.6001
1975-12-13,6116.6001
1975-12-14,6116.6001
1975-12-15,6116.6001
1975-12-16,6117.1001
1975-12-17,6116.7998
1975-12-18,6116.8999
1975-12-19,6116.7998
1975-12-20,6116.7998
1975-12-21,6116.7998
1975-12-22,6116.7998
1975-12-23,6116.7998
1975-12-24,6116.7998
1975-12-25,6116.7998
1975-12-26,6116.7998
1975-12-27,6116.7998
1975-12-28,6116.7998
1975-12-29,6116.7998
1975-12-30,6116.7002
1975-12-31,6116.7002
1976-01-01,6116.7002
1976-01-02,6116.6001
1976-01-03,6116.6001
1976-01-04,6116.5
1976-01-05,6116.5
1976-01-06,6116.6001
1976-01-07,6116.5
1976-01-08,6115.7002
1976-01-09,6107.8999
1976-01-10,6101.7998
1976-01-11,6061.7998
1976-01-12,6061.7998
1976-01-13,6061.7998
1976-01-14,6061.7998
1976-01-15,6061.7998
1976-01-16,6061.7998
1976-01-17,6061.7998
1976-01-18,6061.7998
1976-01-19,6061.7998
1976-01-20,6061.7998
1976-01-21,6061.7998
1976-01-22,6061.7998
1976-01-23,6061.7998
1976-01-24,6061.7998
1976-01-25,6061.7998
1976-01-26,6061.7998
1976-01-27,6061.7998
1976-01-28,6061.7998
1976-01-29,6061.7998
1976-01-30,6061.7998
1976-01-31,6061.7998
1976-02-01,6061.7998
1976-02-02,6061.7998
1976-02-03,6061.7998
1976-02-04,6061.7998
1976-02-05,6061.7998
1976-02-06,6061.7998
1976-02-07,6061.7998
1976-02-08,6061.7998
1976-02-09,6061.7998
1976-02-10,6061.7998
1976-02-11,6061.7998
1976-02-12,6061.7998
1976-02-13,6061.7998
1976-02-14,6061.7998
1976-02-15,6061.7998
1976-02-16,6061.7998
1976-02-17,6061.7998
1976-02-18,6061.7998
1976-02-19,6061.7998
1976-02-20,6061.7998
1976-02-21,6061.7998
1976-02-22,6061.7998
1976-02-23,6061.7998
1976-02-24,6061.7998
1976-02-25,6061.7998
1976-02-26,6061.7998
1976-02-27,6061.7998
1976-02-28,6061.7998
1976-02-29,6061.7998
1976-03-01,6061.7998
1976-03-02,6061.7998
1976-03-03,6061.7998
1976-03-04,6061.7998
1976-03-05,6061.7998
1976-03-06,6061.7998
1976-03-07,6061.7998
1976-03-08,6061.7998
1976-03-09,6061.7998
1976-03-10,6061.7998
1976-03-11,6061.7998
1976-03-12,6061.7998
1976-03-13,6061.7998
1976-03-14,6061.7998
1976-03-15,6061.7998
1976-03-16,6061.7998
1976-03-17,6061.7998
1976-03-18,6061.7998
1976-03-19,6061.7998
1976-03-20,6061.7998
1976-03-21,6061.7998
1976-03-22,6061.7998
1976-03-23,6061.7998
1976-03-24,6061.7998
1976-03-25,6061.7998
1976-03-26,6068.7998
1976-03-27,6073.6001
1976-03-28,6076.8999
1976-03-29,6083.7002
1976-03-30,6094.7998
1976-03-31,6110.8999
1976-04-01,6116.0
1976-04-02,6125.7998
1976-04-03,6131.2998
1976-04-04,6136.2002
1976-04-05,6140.5
1976-04-06,6144.0
1976-04-07,6146.1001
1976-04-08,6148.1001
1976-04-09,6149.7002
1976-04-10,6151.0
1976-04-11,6152.7002
1976-04-12,6153.8999
1976-04-13,6154.1001
1976-04-14,6154.2002
1976-04-15,6154.2002
1976-04-16,6154.2002
1976-04-17,6154.2002
1976-04-18,6154.2998
1976-04-19,6154.2002
1976-04-20,6154.1001
1976-04-21,6154.2002
1976-04-22,6154.1001
1976-04-23,6154.3999
1976-04-24,6154.2002
1976-04-25,6154.0
1976-04-26,6153.8999
1976-04-27,6154.2002
1976-04-28,6154.2002
1976-04-29,6154.2002
1976-04-30,6154.3999
1976-05-01,6155.0
1976-05-02,6155.7002
1976-05-03,6156.2002
1976-05-04,6156.8999
1976-05-05,6157.6001
1976-05-06,6158.3999
1976-05-07,6159.0
1976-05-08,6159.5
1976-05-09,6160.0
1976-05-10,6160.2002
1976-05-11,6159.6001
1976-05-12,6159.3999
1976-05-13,6159.2998
1976-05-14,6159.6001
1976-05-15,6159.8999
1976-05-16,6160.3999
1976-05-17,6160.7998
1976-05-18,6161.2002
1976-05-19,6161.2002
1976-05-20,6159.7998
1976-05-21,6158.7998
1976-05-22,6157.6001
1976-05-23,6156.2998
1976-05-24,6154.8999
1976-05-25,6153.8999
1976-05-26,6153.5
1976-05-27,6153.5
1976-05-28,6153.2998
1976-05-29,6153.2002
1976-05-30,6153.1001
1976-05-31,6153.1001
1976-06-01,6153.1001
1976-06-02,6153.1001
1976-06-03,6153.1001
1976-06-04,6153.1001
1976-06-05,6153.2002
1976-06-06,6153.2002
1976-06-07,6153.2002
1976-06-08,6153.2002
1976-06-09,6153.1001
1976-06-10,6153.0
1976-06-11,6153.0
1976-06-12,6153.0
1976-06-13,6153.0
1976-06-14,6153.0
1976-06-15,6153.0
1976-06-16,6153.0
1976-06-17,6153.8999
1976-06-18,6152.8999
1976-06-19,6152.8999
1976-06-20,6153.0
1976-06-21,6152.8999
1976-06-22,6152.7998
1976-06-23,6152.7998
1976-06-24,6152.6001
1976-06-25,6152.7998
1976-06-26,6152.7002
1976-06-27,6152.7002
1976-06-28,6152.7002
1976-06-29,6152.6001
1976-06-30,6152.6001
1976-07-01,6152.5
1976-07-02,6152.5
1976-07-03,6152.6001
1976-07-04,6152.6001
1976-07-05,6152.6001
1976-07-06,6152.5
1976-07-07,6152.3999
1976-07-08,6152.3999
1976-07-09,6152.3999
1976-07-10,6152.2998
1976-07-11,6152.2002
1976-07-12,6152.2998
1976-07-13,6152.2002
1976-07-14,6152.2002
1976-07-15,6152.2002
1976-07-16,6152.3999
1976-07-17,6152.2998
1976-07-18,6152.2002
1976-07-19,6152.1001
1976-07-20,6152.1001
1976-07-21,6152.2002
1976-07-22,6152.2002
1976-07-23,6152.2002
1976-07-24,6152.2002
1976-07-25,6152.1001
1976-07-26,6152.1001
1976-07-27,6152.1001
1976-07-28,6152.1001
1976-07-29,6152.0
1976-07-30,6152.0
1976-07-31,6152.6001
1976-08-01,6152.5
1976-08-02,6152.3999
1976-08-03,6152.1001
1976-08-04,6151.8999
1976-08-05,6151.8999
1976-08-06,6151.8999
1976-08-07,6151.8999
1976-08-08,6151.7998
1976-08-09,6151.7998
1976-08-10,6151.8999
1976-08-11,6151.7998
1976-08-12,6151.7998
1976-08-13,6151.8999
1976-08-14,6151.8999
1976-08-15,6151.7998
1976-08-16,6151.7998
1976-08-17,6151.7002
1976-08-18,6151.7998
1976-08-19,6151.7998
1976-08-20,6151.6001
1976-08-21,6151.6001
1976-08-22,6151.6001
1976-08-23,6151.8999
1976-08-24,6151.7998
1976-08-25,6151.8999
1976-08-26,6151.6001
1976-08-27,6151.6001
1976-08-28,6151.5
1976-08-29,6151.6001
1976-08-30,6151.6001
1976-08-31,6151.5
1976-09-01,6151.5
1976-09-02,6151.6001
1976-09-03,6151.7002
1976-09-04,6151.6001
1976-09-05,6151.5
1976-09-06,6151.5
1976-09-07,6151.5
1976-09-08,6151.3999
1976-09-09,6151.2998
1976-09-10,6151.2998
1976-09-11,6151.2998
1976-09-12,6151.2998
1976-09-13,6151.2998
1976-09-14,6151.3999
1976-09-15,6151.3999
1976-09-16,6151.5
1976-09-17,6152.0
1976-09-18,6151.8999
1976-09-19,6151.6001
1976-09-20,6151.3999
1976-09-21,6151.3999
1976-09-22,6151.2998
1976-09-23,6151.2998
1976-09-24,6151.2998
1976-09-25,6151.3999
1976-09-26,6151.2998
1976-09-27,6151.5
1976-09-28,6151.5
1976-09-29,6151.2002
1976-09-30,6151.2998
1976-10-01,6151.2998
1976-10-02,6151.2998
1976-10-03,6151.2002
1976-10-04,6151.2002
1976-10-05,6151.2002
1976-10-06,6151.2998
1976-10-07,6151.2998
1976-10-08,6151.2998
1976-10-09,6151.2998
1976-10-10,6151.2998
1976-10-11,6151.2998
1976-10-12,6151.2998
1976-10-13,6151.2998
1976-10-14,6151.2998
1976-10-15,6151.2998
1976-10-16,6151.3999
1976-10-17,6151.3999
1976-10-18,6151.2998
1976-10-19,6151.2002
1976-10-20,6151.2002
1976-10-21,6151.2002
1976-10-22,6151.2002
1976-10-23,6151.2002
1976-10-24,6151.1001
1976-10-25,6151.1001
1976-10-26,6151.1001
1976-10-27,6151.1001
1976-10-28,6151.2002
1976-10-29,6151.2002
1976-10-30,6151.2002
1976-10-31,6151.2002
1976-11-01,6151.1001
1976-11-02,6151.1001
1976-11-03,6151.1001
1976-11-04,6151.0
1976-11-05,6151.0
1976-11-06,6151.0
1976-11-07,6151.0
1976-11-08,6151.0
1976-11-09,6151.0
1976-11-10,6151.0
1976-11-11,6151.0
1976-11-12,6151.0
1976-11-13,6151.0
1976-11-14,6151.0
1976-11-15,6151.0
1976-11-16,6151.0
1976-11-17,6151.0
1976-11-18,6151.0
1976-11-19,6150.8999
1976-11-20,6150.8999
1976-11-21,6150.8999
1976-11-22,6150.8999
1976-11-23,6150.8999
1976-11-24,6151.0
1976-11-25,6151.0
1976-11-26,6150.8999
1976-11-27,6151.0
1976-11-28,6150.8999
1976-11-29,6150.8999
1976-11-30,6150.8999
1976-12-01,6150.8999
1976-12-02,6150.8999
1976-12-03,6150.8999
1976-12-04,6150.8999
1976-12-05,6150.8999
1976-12-06,6150.8999
1976-12-07,6150.8999
1976-12-08,6150.8999
1976-12-09,6150.8999
1976-12-10,6150.8999
1976-12-11,6150.8999
1976-12-12,6150.8999
1976-12-13,6150.8999
1976-12-14,6150.8999
1976-12-15,6151.0
1976-12-16,6151.0
1976-12-17,6151.2998
1976-12-18,6151.7998
1976-12-19,6152.2002
1976-12-20,6152.6001
1976-12-21,6152.0
1976-12-22,6151.2002
1976-12-23,6151.0
1976-12-24,6151.0
1976-12-25,6151.0
1976-12-26,6150.8999
1976-12-27,6150.8999
1976-12-28,6150.8999
1976-12-29,6150.8999
1976-12-30,6150.8999
1976-12-31,6150.8999
1977-01-01,6151.0
1977-01-02,6151.0
1977-01-03,6151.0
1977-01-04,6150.8999
1977-01-05,6150.8999
1977-01-06,6150.8999
1977-01-07,6150.7998
1977-01-08,6150.8999
1977-01-09,6150.8999
1977-01-10,6150.8999
1977-01-11,6150.8999
1977-01-12,6150.8999
1977-01-13,6151.0
1977-01-14,6151.0
1977-01-15,6150.8999
1977-01-16,6150.8999
1977-01-17,6150.8999
1977-01-18,6150.8999
1977-01-19,6150.8999
1977-01-20,6150.8999
1977-01-21,6150.8999
1977-01-22,6151.0
1977-01-23,6151.0
1977-01-24,6151.0
1977-01-25,6151.0
1977-01-26,6150.8999
1977-01-27,6150.8999
1977-01-28,6150.8999
1977-01-29,6150.8999
1977-01-30,6150.8999
1977-01-31,6150.8999
1977-02-01,6150.8999
1977-02-02,6150.8999
1977-02-03,6150.8999
1977-02-04,6150.8999
1977-02-05,6150.8999
1977-02-06,6150.8999
1977-02-07,6150.8999
1977-02-08,6150.8999
1977-02-09,6151.0
1977-02-10,6151.0
1977-02-11,6150.8999
1977-02-12,6150.8999
1977-02-13,6150.8999
1977-02-14,6150.8999
1977-02-15,6151.0
1977-02-16,6151.0
1977-02-17,6151.0
1977-02-18,6150.8999
1977-02-19,6150.8999
1977-02-20,6150.8999
1977-02-21,6151.0
1977-02-22,6151.0
1977-02-23,6150.8999
1977-02-24,6150.8999
1977-02-25,6150.8999
1977-02-26,6150.8999
1977-02-27,6150.8999
1977-02-28,6150.8999
1977-03-01,6151.0
1977-03-02,6151.0
1977-03-03,6150.8999
1977-03-04,6150.8999
1977-03-05,6150.8999
1977-03-06,6150.8999
1977-03-07,6150.8999
1977-03-08,6150.8999
1977-03-09,6150.8999
1977-03-10,6151.0
1977-03-11,6150.8999
1977-03-12,6150.8999
1977-03-13,6150.8999
1977-03-14,6150.8999
1977-03-15,6150.8999
1977-03-16,6151.0
1977-03-17,6150.8999
1977-03-18,6150.8999
1977-03-19,6150.8999
1977-03-20,6150.8999
1977-03-21,6150.7998
1977-03-22,6150.7998
1977-03-23,6150.8999
1977-03-24,6150.8999
1977-03-25,6150.8999
1977-03-26,6150.8999
1977-03-27,6150.8999
1977-03-28,6150.8999
1977-03-29,6150.8999
1977-03-30,6150.8999
1977-03-31,6150.8999
1977-04-01,6150.8999
1977-04-02,6150.8999
1977-04-03,6151.0
1977-04-04,6151.0
1977-04-05,6150.8999
1977-04-06,6150.8999
1977-04-07,6150.7998
1977-04-08,6150.7998
1977-04-09,6150.7998
1977-04-10,6150.7998
1977-04-11,6150.7998
1977-04-12,6150.7002
1977-04-13,6150.7998
1977-04-14,6150.7998
1977-04-15,6150.7002
1977-04-16,6150.6001
1977-04-17,6150.6001
1977-04-18,6150.6001
1977-04-19,6150.7002
1977-04-20,6150.7002
1977-04-21,6150.6001
1977-04-22,6150.6001
1977-04-23,6150.6001
1977-04-24,6150.6001
1977-04-25,6150.7002
1977-04-26,6150.6001
1977-04-27,6150.6001
1977-04-28,6150.6001
1977-04-29,6150.8999
1977-04-30,6150.7002
1977-05-01,6150.6001
1977-05-02,6150.6001
1977-05-03,6150.5
1977-05-04,6150.5
1977-05-05,6150.5
1977-05-06,6150.5
1977-05-07,6150.5
1977-05-08,6150.5
1977-05-09,6150.5
1977-05-10,6150.3999
1977-05-11,6150.3999
1977-05-12,6150.3999
1977-05-13,6150.2998
1977-05-14,6150.3999
1977-05-15,6150.3999
1977-05-16,6150.2998
1977-05-17,6150.2998
1977-05-18,6150.3999
1977-05-19,6150.3999
1977-05-20,6150.2998
1977-05-21,6150.2998
1977-05-22,6150.2998
1977-05-23,6150.2998
1977-05-24,6150.2998
1977-05-25,6150.3999
1977-05-26,6150.2998
1977-05-27,6150.2002
1977-05-28,6150.2002
1977-05-29,6150.2002
1977-05-30,6150.2002
1977-05-31,6150.2002
1977-06-01,6150.7998
1977-06-02,6152.2998
1977-06-03,6152.7998
1977-06-04,6151.7002
1977-06-05,6150.5
1977-06-06,6150.1001
1977-06-07,6150.1001
1977-06-08,6150.0
1977-06-09,6150.0
1977-06-10,6150.2002
1977-06-11,6150.3999
1977-06-12,6150.3999
1977-06-13,6150.2998
1977-06-14,6150.2002
1977-06-15,6150.0
1977-06-16,6149.8999
1977-06-17,6149.8999
1977-06-18,6149.8999
1977-06-19,6149.8999
1977-06-20,6149.8999
1977-06-21,6149.8999
1977-06-22,6149.7002
1977-06-23,6149.7998
1977-06-24,6149.7002
1977-06-25,6149.6001
1977-06-26,6149.6001
1977-06-27,6149.5
1977-06-28,6149.6001
1977-06-29,6149.5
1977-06-30,6149.5
1977-07-01,6149.5
1977-07-02,6149.3999
1977-07-03,6149.3999
1977-07-04,6149.5
1977-07-05,6149.5
1977-07-06,6149.2998
1977-07-07,6149.2998
1977-07-08,6149.6001
1977-07-09,6149.7002
1977-07-10,6149.5
1977-07-11,6149.2998
1977-07-12,6149.2998
1977-07-13,6149.3999
1977-07-14,6149.6001
1977-07-15,6149.5
1977-07-16,6149.5
1977-07-17,6149.2002
1977-07-18,6149.2998
1977-07-19,6149.2998
1977-07-20,6149.3999
1977-07-21,6149.7998
1977-07-22,6150.0
1977-07-23,6149.2998
1977-07-24,6149.3999
1977-07-25,6150.2002
1977-07-26,6149.8999
1977-07-27,6149.7002
1977-07-28,6149.7998
1977-07-29,6149.5
1977-07-30,6149.3999
1977-07-31,6149.2002
1977-08-01,6149.1001
1977-08-02,6149.0
1977-08-03,6149.1001
1977-08-04,6149.2998
1977-08-05,6149.1001
1977-08-06,6149.1001
1977-08-07,6149.1001
1977-08-08,6149.2998
1977-08-09,6149.7998
1977-08-10,6149.6001
1977-08-11,6149.6001
1977-08-12,6151.3999
1977-08-13,6149.6001
1977-08-14,6148.8999
1977-08-15,6149.2998
1977-08-16,6149.7998
1977-08-17,6149.7998
1977-08-18,6149.2002
1977-08-19,6148.7998
1977-08-20,6149.0
1977-08-21,6149.0
1977-08-22,6149.0
1977-08-23,6149.1001
1977-08-24,6149.1001
1977-08-25,6149.1001
1977-08-26,6149.1001
1977-08-27,6149.0
1977-08-28,6149.0
1977-08-29,6149.0
1977-08-30,6149.2998
1977-08-31,6149.0
1977-09-01,6149.0
1977-09-02,6149.1001
1977-09-03,6148.8999
1977-09-04,6149.0
1977-09-05,6148.8999
1977-09-06,6148.8999
1977-09-07,6148.8999
1977-09-08,6148.8999
1977-09-09,6148.8999
1977-09-10,6148.7998
1977-09-11,6148.7998
1977-09-12,6148.8999
1977-09-13,6148.8999
1977-09-14,6148.8999
1977-09-15,6148.7998
1977-09-16,6148.7002
1977-09-17,6148.7998
1977-09-18,6148.7002
1977-09-19,6148.7002
1977-09-20,6148.7002
1977-09-21,6148.7998
1977-09-22,6148.8999
1977-09-23,6148.8999
1977-09-24,6148.7002
1977-09-25,6148.7002
1977-09-26,6148.7998
1977-09-27,6148.7998
1977-09-28,6148.7002
1977-09-29,6148.6001
1977-09-30,6148.6001
1977-10-01,6148.5
1977-10-02,6148.5
1977-10-03,6148.5
1977-10-04,6148.5
1977-10-05,6148.2998
1977-10-06,6148.6001
1977-10-07,6148.7002
1977-10-08,6148.6001
1977-10-09,6148.6001
1977-10-10,6148.5
1977-10-11,6148.5
1977-10-12,6148.5
1977-10-13,6148.6001
1977-10-14,6148.6001
1977-10-15,6148.5
1977-10-16,6148.5
1977-10-17,6148.5
1977-10-18,6148.5
1977-10-19,6148.5
1977-10-20,6148.3999
1977-10-21,6148.5
1977-10-22,6148.5
1977-10-23,6148.3999
1977-10-24,6147.5
1977-10-25,6146.5
1977-10-26,6145.3999
1977-10-27,6144.7998
1977-10-28,6144.7002
1977-10-29,6144.7002
1977-10-30,6144.7002
1977-10-31,6144.7002
1977-11-01,6144.7998
1977-11-02,6144.7002
1977-11-03,6144.7002
1977-11-04,6144.7002
1977-11-05,6144.7002
1977-11-06,6144.7002
1977-11-07,6144.7998
1977-11-08,6144.6001
1977-11-09,6144.5
1977-11-10,6144.5
1977-11-11,6144.6001
1977-11-12,6144.6001
1977-11-13,6144.6001
1977-11-14,6144.6001
1977-11-15,6144.7002
1977-11-16,6144.7998
1977-11-17,6144.7002
1977-11-18,6144.7002
1977-11-19,6144.7002
1977-11-20,6144.7002
1977-11-21,6144.6001
1977-11-22,6144.6001
1977-11-23,6144.6001
1977-11-24,6144.6001
1977-11-25,6144.7002
1977-11-26,6144.7002
1977-11-27,6144.7002
1977-11-28,6144.7002
1977-11-29,6144.7002
1977-11-30,6144.7002
1977-12-01,6144.7002
1977-12-02,6144.6001
1977-12-03,6144.7002
1977-12-04,6144.7002
1977-12-05,6144.6001
1977-12-06,6144.6001
1977-12-07,6144.6001
1977-12-08,6144.6001
1977-12-09,6144.7998
1977-12-10,6144.7998
1977-12-11,6144.7002
1977-12-12,6144.7002
1977-12-13,6144.6001
1977-12-14,6144.2998
1977-12-15,6144.3999
1977-12-16,6144.3999
1977-12-17,6144.3999
1977-12-18,6144.5
1977-12-19,6144.5
1977-12-20,6144.3999
1977-12-21,6144.5
1977-12-22,6144.6001
1977-12-23,6144.6001
1977-12-24,6144.6001
1977-12-25,6144.6001
1977-12-26,6144.6001
1977-12-27,6144.6001
1977-12-28,6144.6001
1977-12-29,6144.5
1977-12-30,6144.5
1977-12-31,6144.5
1978-01-01,6144.5
1978-01-02,6144.3999
1978-01-03,6144.3999
1978-01-04,6144.5
1978-01-05,6144.3999
1978-01-06,6144.3999
1978-01-07,6144.3999
1978-01-08,6144.3999
1978-01-09,6144.3999
1978-01-10,6144.5
1978-01-11,6144.5
1978-01-12,6144.5
1978-01-13,6144.3999
1978-01-14,6144.3999
1978-01-15,6144.5
1978-01-16,6144.5
1978-01-17,6144.3999
1978-01-18,6144.5
1978-01-19,6144.3999
1978-01-20,6144.5
1978-01-21,6144.5
1978-01-22,6144.5
1978-01-23,6144.5
1978-01-24,6144.5
1978-01-25,6144.5
1978-01-26,6144.5
1978-01-27,6144.5
1978-01-28,6144.5
1978-01-29,6144.3999
1978-01-30,6144.3999
1978-01-31,6144.5
1978-02-01,6144.5
1978-02-02,6144.5
1978-02-03,6144.5
1978-02-04,6144.5
1978-02-05,6144.5
1978-02-06,6144.5
1978-02-07,6144.3999
1978-02-08,6144.3999
1978-02-09,6144.3999
1978-02-10,6144.3999
1978-02-11,6144.5
1978-02-12,6144.5
1978-02-13,6144.5
1978-02-14,6144.3999
1978-02-15,6144.3999
1978-02-16,6144.5
1978-02-17,6144.5
1978-02-18,6144.5
1978-02-19,6144.5
1978-02-20,6144.5
1978-02-21,6144.5
1978-02-22,6144.5
1978-02-23,6144.5
1978-02-24,6144.5
1978-02-25,6144.5
1978-02-26,6144.5
1978-02-27,6144.5
1978-02-28,6144.5
1978-03-01,6144.5
1978-03-02,6144.7998
1978-03-03,6144.7998
1978-03-04,6144.5
1978-03-05,6144.5
1978-03-06,6144.5
1978-03-07,6144.2998
1978-03-08,6144.3999
1978-03-09,6144.5
1978-03-10,6144.3999
1978-03-11,6144.2998
1978-03-12,6144.3999
1978-03-13,6144.3999
1978-03-14,6144.3999
1978-03-15,6144.2998
1978-03-16,6144.3999
1978-03-17,6144.3999
1978-03-18,6144.5
1978-03-19,6144.6001
1978-03-20,6144.6001
1978-03-21,6144.5
1978-03-22,6144.5
1978-03-23,6144.7002
1978-03-24,6144.7002
1978-03-25,6144.6001
1978-03-26,6144.6001
1978-03-27,6144.5
1978-03-28,6144.6001